Dewpoint
23 19 16 14 13 22 25 25 27 20 16 15 11 10 8 6 11 15 15 19 21 17 12 17 19 16 17 18 19 22 30 34 37 39 42 40 41 42 44 48 48 52 51 51 54 54 54 56 56 57 58 60 61 62 62 62 63 63 61 62 63 63 62 59 56 55 52 51 51 52 52 52 54 54 57 56 57 57 56 57 55 57 56 58 58 57
30 19 17 19 23 26 29 31 31 29 28 18 15 10 7 8 9 14 18 22 20 28 15 20 17 16 20 22 20 23 23 26 34 37 41 39 37 39 41 45 47 51 49 48 52 53 54 52 57 57 57 59 60 60 61 61 61 62 61 62 62 62 61 58 57 55 53 53 51 51 51 51 48 49 51 54 56 57 57 56 56 56 55 57 58 57
19 14 21 26 30 33 34 34 32 30 27 23 16 12 11 10 8 18 22 23 22 22 15 17 15 14 20 22 22 24 22 22 28 33 35 37 36 35 35 39 45 48 50 50 51 52 51 54 55 56 57 58 59 60 60 61 61 61 61 61 63 60 59 58 58 55 53 54 55 53 51 49 50 54 56 53 52 54 52 56 54 55 55 55 55 57
17 8 24 25 32 33 35 35 32 32 30 20 16 17 14 12 13 13 25 26 28 23 22 19 17 17 21 24 24 25 22 27 41 38 37 36 34 34 35 36 40 45 50 52 51 51 50 52 54 55 56 57 58 59 59 59 60 60 59 61 61 60 59 58 58 54 56 57 59 59 57 57 53 52 54 54 54 53 53 53 55 55 57 56 55 54
6 20 25 29 30 32 30 34 30 22 18 25 25 17 11 17 14 12 20 25 31 33 31 20 21 16 17 18 20 28 29 32 29 28 30 31 29 35 40 41 42 42 47 51 52 53 51 50 52 53 55 56 57 58 58 59 59 59 58 61 60 59 59 58 57 57 59 57 57 57 58 56 55 53 51 51 51 53 53 54 55 55 56 55 54 55
8 31 29 23 25 26 30 25 26 25 15 22 26 25 21 22 22 19 24 21 22 26 27 20 11 9 17 18 17 24 25 22 24 26 24 26 29 28 29 35 40 46 46 47 50 52 53 51 52 52 54 55 55 57 58 59 58 58 57 60 60 58 59 57 58 59 55 53 53 52 50 48 48 50 50 49 51 51 52 50 54 55 55 54 55 54
16 31 30 27 27 25 23 20 24 24 17 18 19 22 21 18 24 24 23 21 13 10 26 28 14 9 18 17 21 23 22 22 26 26 25 24 25 24 26 27 30 36 41 45 48 49 52 53 52 52 53 53 54 55 58 58 59 57 57 60 59 57 57 57 58 58 54 54 51 52 49 48 47 46 49 53 53 53 51 54 55 54 57 55 56 56
16 22 23 28 29 22 21 16 26 22 17 13 33 20 18 19 24 26 22 19 14 23 27 24 15 13 13 16 22 21 21 19 22 26 27 22 26 25 27 26 33 33 37 40 45 47 50 53 53 52 53 53 52 55 57 58 58 57 58 60 59 57 56 58 58 57 54 53 52 51 49 48 45 47 50 52 54 55 54 54 55 55 56 56 55 55
31 25 25 23 22 16 12 14 29 28 19 22 31 22 19 19 25 23 18 18 22 19 15 19 17 14 14 16 20 18 16 18 18 24 24 26 27 30 31 30 30 33 35 38 39 44 47 50 52 53 53 54 53 54 56 57 57 57 59 59 59 57 57 58 59 56 55 53 52 50 50 47 47 50 49 50 51 51 55 56 55 55 54 56 56 53
17 15 15 14 11 12 15 16 22 28 22 29 26 23 22 22 22 23 18 14 20 20 13 15 23 12 8 15 18 17 14 18 21 23 24 27 28 29 31 34 33 31 33 33 34 38 44 48 51 54 54 53 53 55 56 56 56 57 59 58 58 57 56 57 58 56 55 54 54 51 50 49 48 47 48 48 51 53 54 55 56 55 54 54 53 53
17 23 23 13 10 10 20 26 25 24 26 24 23 19 18 17 20 20 18 16 19 13 12 24 21 13 6 13 20 18 28 24 26 25 27 28 28 26 33 30 31 29 31 30 30 33 38 46 51 53 53 54 55 57 55 56 55 57 58 57 56 56 54 57 57 56 55 55 55 51 51 51 50 50 50 50 52 51 53 53 55 54 54 53 51 51
11 18 17 13 16 17 17 17 23 25 23 21 22 19 17 20 19 19 18 18 13 9 20 18 21 20 8 10 17 25 26 28 30 29 28 28 27 29 34 30 30 32 35 35 34 33 37 41 49 53 53 54 55 56 55 56 55 56 57 57 56 56 55 57 57 56 55 55 55 54 54 52 52 52 50 51 51 52 52 52 53 52 53 53 52 51
15 11 11 15 22 14 12 10 18 22 22 21 21 19 16 14 15 12 14 13 10 9 20 16 18 18 13 15 24 23 23 24 29 23 26 26 27 34 31 34 33 33 35 36 35 37 38 43 50 52 52 53 55 55 55 55 55 55 55 56 56 55 55 56 56 56 56 56 55 54 55 54 54 52 50 49 51 52 50 51 51 52 51 51 51 49
10 9 10 11 17 18 13 8 16 14 19 18 19 18 15 10 9 12 5 9 7 14 20 19 21 12 12 22 24 25 26 23 25 28 28 29 33 36 33 35 34 36 36 38 37 37 43 46 48 51 51 51 54 54 53 54 54 54 56 56 55 54 55 56 56 56 56 56 56 56 56 55 54 54 52 50 50 51 49 50 51 51 51 51 52 51
8 7 10 13 15 17 15 10 10 18 16 13 14 12 18 15 13 11 5 8 7 7 21 20 18 20 13 25 24 26 24 21 21 20 29 33 33 37 35 35 36 38 40 40 43 43 46 50 52 52 52 53 54 54 54 54 54 54 54 52 53 53 55 56 55 56 56 55 56 56 56 56 56 55 52 49 50 53 50 51 52 50 51 50 52 52
5 7 15 13 13 13 11 13 15 11 10 14 14 12 13 15 16 11 17 14 14 10 15 19 15 17 19 26 25 24 20 21 22 25 29 31 33 36 36 38 38 40 40 41 44 47 50 51 52 53 53 54 53 54 54 54 54 55 51 52 54 53 56 56 55 55 55 55 56 57 58 58 57 55 54 51 50 52 52 52 51 51 52 51 53 53
9 8 14 14 15 13 13 15 14 12 11 20 11 15 12 17 14 15 23 31 22 14 11 12 19 17 24 20 21 20 18 19 21 22 25 28 31 37 37 37 38 40 41 43 43 45 50 51 52 51 52 53 53 53 54 54 54 53 53 54 54 53 55 54 55 55 55 56 56 57 58 58 58 57 56 54 55 56 55 53 52 50 52 53 53 54
18 10 14 12 11 14 17 14 14 13 12 13 12 12 15 15 19 20 12 17 13 10 11 13 18 11 12 14 18 18 18 18 19 20 23 32 32 32 35 38 39 39 42 44 44 46 48 50 51 52 52 53 53 53 54 53 54 54 54 54 54 52 53 53 54 55 56 56 57 57 58 58 58 58 58 57 57 57 55 54 52 51 52 54 53 55
17 11 7 12 12 15 15 15 13 13 14 11 11 15 12 12 13 15 16 12 10 11 8 10 11 12 6 14 16 17 19 20 20 21 23 25 29 32 35 37 39 41 41 42 44 45 46 48 50 52 52 51 53 54 54 53 55 55 56 55 55 53 52 51 52 53 55 56 55 55 56 57 57 57 57 57 58 57 56 54 52 52 53 55 53 55
25 16 11 15 13 15 14 12 11 13 14 15 15 12 13 17 17 15 15 14 12 10 12 14 9 12 11 15 20 19 21 22 21 22 23 25 30 34 36 37 37 41 42 39 41 43 45 46 48 49 51 50 53 54 54 54 53 53 54 54 54 54 53 52 51 54 54 54 54 55 56 57 55 55 56 57 58 57 56 54 53 52 53 54 52 53
20 27 13 13 16 15 11 14 12 10 17 16 14 13 15 22 21 17 21 13 12 11 10 10 10 11 16 18 19 19 22 23 23 24 27 29 32 34 36 40 39 40 41 41 41 41 43 45 47 47 49 49 50 51 53 53 54 54 54 53 52 53 54 54 54 53 53 53 52 55 57 56 57 57 56 57 57 57 56 55 54 53 53 52 52 52
17 20 15 14 13 14 13 18 18 17 17 17 16 14 12 15 13 11 12 13 16 10 11 10 11 14 29 30 23 20 25 25 22 24 28 28 32 37 39 41 41 39 40 41 41 41 40 42 43 43 43 45 46 48 49 50 52 53 55 52 53 51 51 52 52 54 53 53 53 54 55 56 56 56 56 57 57 57 55 55 54 55 53 53 53 51
29 23 18 13 11 9 15 18 21 19 20 18 18 15 12 19 17 14 11 13 15 13 12 13 12 13 30 30 25 27 27 22 25 25 28 30 34 36 37 37 39 40 39 40 40 39 39 40 39 37 40 42 44 45 45 46 47 48 49 49 51 53 54 53 53 52 53 53 54 55 55 54 54 54 56 57 56 56 55 55 55 54 54 53 52 51
34 23 16 10 9 6 13 17 20 20 19 17 19 21 19 18 20 18 18 17 17 17 14 14 12 17 29 31 31 30 30 27 27 28 29 31 35 36 36 38 38 39 40 39 40 40 37 36 37 35 36 35 39 42 41 42 42 44 44 44 43 45 47 51 53 53 53 54 54 55 56 56 54 54 54 56 56 56 57 55 55 54 54 52 52 51
18 23 19 10 8 10 12 16 13 17 16 19 17 22 19 17 20 25 24 25 17 18 15 11 11 11 32 30 24 24 23 23 24 30 31 32 36 35 35 36 37 39 39 38 39 39 38 37 36 34 33 34 34 36 41 39 40 40 42 42 41 42 42 44 47 52 52 54 55 54 55 56 56 56 57 56 56 56 56 56 55 54 52 53 52 51
18 20 19 13 8 7 8 7 8 11 15 15 22 21 21 16 25 24 18 19 16 20 18 16 14 24 29 27 24 24 23 24 25 28 33 31 34 33 34 37 39 37 37 38 39 40 40 36 33 36 38 33 34 33 36 38 38 39 40 40 41 39 41 41 42 42 48 53 55 55 55 57 56 56 56 57 57 57 56 55 55 54 54 52 51 52
23 26 24 19 14 10 12 6 23 18 17 15 16 16 20 20 19 24 22 17 15 18 18 20 20 21 26 23 22 23 24 23 26 29 28 31 36 38 39 37 36 36 36 36 38 37 37 38 39 37 38 36 37 37 36 36 35 37 41 41 39 41 41 42 43 40 41 43 48 53 56 56 56 56 56 56 56 56 55 54 55 54 53 52 52 52
25 21 23 26 22 16 15 14 16 19 16 13 14 18 16 20 24 23 17 15 21 17 13 19 23 22 20 20 22 24 24 25 27 28 28 29 33 34 35 38 37 33 34 34 35 35 35 37 39 40 40 38 35 34 34 35 36 38 40 40 39 40 43 43 45 42 41 44 43 43 47 51 54 55 55 56 56 56 56 55 55 54 53 53 52 52
25 19 23 26 20 16 15 16 15 16 15 16 16 19 22 21 24 24 24 21 23 17 15 20 22 23 19 17 22 21 26 27 26 28 29 33 33 35 35 32 31 32 32 31 34 35 35 35 39 40 39 37 35 36 36 35 36 40 41 39 39 41 40 41 43 42 41 42 44 46 44 45 47 51 52 53 54 55 55 55 55 54 53 53 53 54
24 18 20 15 16 14 12 14 16 16 16 16 19 19 20 23 24 25 26 24 22 23 23 22 22 24 21 21 19 22 24 25 25 28 32 33 34 33 31 31 30 30 29 29 31 32 34 35 37 38 39 38 36 35 32 36 34 34 37 39 38 39 39 39 41 39 38 38 40 43 42 44 46 47 50 52 53 53 54 54 55 55 54 53 53 53
20 16 29 22 19 16 15 14 14 14 18 18 15 16 17 20 21 24 25 26 25 25 26 25 27 27 23 23 21 29 31 27 29 32 33 33 31 32 31 31 30 27 26 28 30 31 32 34 34 35 35 36 37 37 36 38 33 35 36 37 36 36 36 34 37 37 37 37 37 37 38 41 44 46 48 50 52 53 53 54 54 54 54 54 53 53
26 18 22 21 16 16 13 11 10 11 9 10 14 17 18 19 22 25 23 27 26 25 25 24 23 22 22 23 23 26 30 26 24 28 31 33 32 32 31 30 28 27 27 27 29 30 31 31 33 34 36 36 36 34 35 36 33 32 34 35 35 33 34 38 39 37 36 35 35 35 34 36 38 41 45 48 48 51 51 53 53 52 53 54 53 53
21 20 17 15 13 15 11 9 9 13 15 10 16 18 18 21 20 21 22 25 26 27 25 22 21 27 27 27 24 23 26 24 23 25 31 34 32 30 30 30 27 27 27 27 27 29 30 30 32 36 37 34 34 33 33 32 32 36 37 37 38 36 38 36 36 36 37 36 34 32 35 34 35 37 41 45 48 50 52 51 51 51 52 53 54 54
22 22 16 16 12 12 10 16 19 13 7 6 26 31 27 25 24 24 21 22 25 28 24 26 26 28 28 27 25 25 26 25 29 34 35 34 34 32 30 30 28 28 29 30 30 29 32 33 34 36 37 38 37 36 38 37 36 38 39 37 36 37 36 34 35 37 37 37 35 34 34 34 35 37 39 44 48 50 50 50 50 51 51 52 53 53
24 22 16 15 12 12 15 17 12 9 8 26 27 27 29 28 25 24 24 27 30 30 31 27 25 26 30 29 28 31 33 33 33 30 30 29 33 32 32 29 29 29 31 32 33 34 35 36 36 36 37 37 36 39 38 34 35 36 34 36 35 35 37 36 35 37 38 37 37 37 37 37 36 38 39 41 44 48 49 50 51 50 50 51 52 52
20 18 16 15 14 14 12 11 9 8 20 25 25 27 30 25 26 28 28 29 30 29 32 29 29 31 32 33 33 33 32 31 29 28 28 28 30 31 31 30 30 31 32 32 33 35 35 34 34 35 36 37 35 33 32 33 34 35 36 36 36 36 34 35 35 35 36 37 38 39 39 39 39 40 40 41 43 45 47 49 50 50 51 51 51 51
21 19 17 14 18 13 13 11 11 16 16 19 21 30 27 26 28 26 20 23 29 29 29 28 27 28 30 30 32 31 31 29 27 25 25 25 27 27 28 27 30 30 30 31 32 33 35 35 33 35 36 37 36 34 35 34 35 36 36 35 34 33 33 35 35 34 35 37 38 40 41 41 40 40 41 42 42 43 47 49 49 49 49 50 50 49
19 20 19 16 15 15 12 11 11 12 11 12 28 31 33 34 34 34 29 20 29 27 27 27 27 28 30 29 29 30 32 28 26 23 23 24 25 28 26 26 26 27 26 27 28 28 30 31 32 32 32 34 34 35 35 35 36 36 37 37 36 34 33 32 33 33 34 36 38 40 40 41 40 40 41 42 43 44 47 49 49 49 49 50 49 48
21 22 20 16 15 14 15 13 11 9 12 24 26 28 29 28 34 34 25 17 24 24 25 25 25 26 27 27 28 29 29 24 22 23 25 25 25 25 25 24 22 24 25 25 26 27 29 32 33 32 31 34 33 33 35 35 36 35 36 37 36 36 35 36 35 35 35 38 38 39 40 41 41 41 41 42 43 45 47 48 48 48 49 50 49 48
21 19 17 15 17 15 14 12 12 14 13 27 28 26 26 28 32 31 17 15 24 24 23 25 25 26 27 27 27 26 25 21 20 24 26 26 24 25 26 24 27 26 24 26 26 29 29 30 30 32 33 33 34 34 34 33 33 35 37 36 36 36 36 36 36 35 37 38 40 41 41 43 43 43 43 43 45 47 48 48 48 48 49 50 47 46
19 18 16 14 13 13 15 12 13 14 24 28 25 25 27 34 30 19 14 18 23 23 21 22 24 27 28 28 27 25 25 25 24 26 27 26 23 24 26 28 26 24 23 25 27 31 28 26 26 27 31 31 32 33 33 33 34 35 35 37 37 37 37 37 36 36 37 39 40 41 41 42 43 44 44 45 47 48 48 47 47 48 49 47 45 44
16 18 16 17 14 12 12 10 11 13 23 25 25 25 28 25 16 12 20 24 24 22 23 21 22 25 27 26 25 24 25 25 26 27 26 25 26 26 25 24 24 24 25 25 29 29 29 29 33 33 32 32 32 33 33 33 34 35 35 36 37 38 37 37 36 37 37 39 39 40 41 42 42 44 46 46 47 47 47 47 47 48 48 45 44 43
15 15 13 11 14 14 13 10 9 8 24 26 26 20 23 18 18 21 23 24 24 23 23 22 22 22 23 25 26 28 27 26 28 27 27 27 27 26 26 25 27 25 26 28 28 24 25 25 26 26 30 30 32 33 34 36 36 36 37 37 38 38 38 37 39 39 39 39 40 40 40 42 43 45 47 47 48 47 47 48 48 47 46 45 44 44
19 15 12 12 15 10 10 9 10 15 25 26 26 19 24 22 22 24 24 21 23 23 22 23 22 23 24 25 25 25 27 27 27 29 28 27 27 27 27 27 27 25 25 23 22 24 25 26 27 29 30 31 31 33 34 35 35 36 36 37 38 38 38 38 39 39 40 41 40 40 40 40 42 44 46 46 47 48 47 48 46 46 45 45 45 44
19 15 19 15 20 17 15 16 20 20 23 22 24 23 26 25 24 24 24 23 22 21 25 25 26 27 28 27 28 27 26 26 26 26 27 28 27 27 27 27 27 27 27 26 24 25 27 28 31 31 31 31 33 34 34 35 35 36 37 39 38 37 38 38 39 40 40 41 40 40 39 41 42 44 45 46 48 47 46 46 45 44 44 44 44 43
17 19 23 19 16 19 18 19 22 19 19 20 19 20 20 22 23 25 24 22 25 24 24 23 24 24 25 27 26 26 26 27 26 25 25 25 26 25 26 24 23 25 25 26 27 26 25 27 29 30 31 33 34 35 36 36 36 36 38 38 37 38 39 40 40 40 40 38 39 40 40 41 42 44 46 48 47 46 45 44 43 43 43 44 45 42
16 18 19 15 17 15 13 18 19 19 19 19 17 19 20 20 20 21 22 22 22 22 23 24 24 24 25 25 24 25 25 26 25 27 26 26 26 26 26 25 26 26 27 27 28 30 31 32 31 31 32 33 35 35 35 36 37 38 36 34 34 35 36 36 37 38 39 40 40 41 41 41 43 45 47 46 46 45 44 44 43 43 43 42 41 40
14 23 17 15 15 13 15 16 17 16 17 17 15 15 17 18 19 21 21 22 22 22 23 24 24 23 22 22 23 24 24 25 25 25 26 25 25 24 24 25 26 27 29 31 32 33 34 34 33 34 34 34 36 36 36 36 35 34 34 34 33 36 38 38 39 40 40 41 41 41 41 43 40 43 45 45 44 44 43 43 43 42 41 40 40 39
16 20 12 15 14 14 15 14 13 15 16 16 16 18 18 19 20 22 24 26 24 23 25 25 25 23 23 22 22 23 22 23 24 24 23 22 24 25 25 27 28 30 32 32 34 34 34 33 29 31 33 33 35 36 35 34 34 33 34 35 37 38 40 39 39 40 42 42 43 43 44 45 44 44 44 44 44 44 43 42 41 41 40 42 40 39
15 13 13 14 12 12 11 12 16 14 16 15 19 22 21 24 26 27 27 27 27 27 29 26 27 27 27 27 25 24 22 22 24 26 26 27 28 29 30 30 31 31 32 32 33 33 32 31 32 31 31 32 33 34 35 36 37 36 36 37 38 39 40 41 42 43 43 42 43 43 45 44 43 43 43 43 40 38 37 33 36 40 41 38 34 33
13 16 15 13 13 13 14 15 19 20 20 21 21 22 23 24 26 27 27 28 27 29 29 29 29 30 29 28 27 27 28 28 28 28 27 26 26 28 30 31 32 32 33 34 34 33 33 34 34 34 34 34 35 35 36 37 38 39 40 39 40 41 42 42 42 42 42 43 44 46 44 43 43 43 42 40 38 38 36 35 34 33 33 33 33 33